,,PA_Meas_PMT16A,,PR_Meas_QMR101_102,,RH_Meas_QMH101,,SR_Meas_QMS101,,TA_Meas_QMH101,,GenWind,,GenWind,
time,status,PA,status,PR,status,RH,status,SR,status,TA,status,DirAvg,status,SpdAvg,
2014-12-11, 00:00:05,VALID,918.16,VALID,0,VALID,91.0998,VALID,0,VALID,20.0343,VALID,151,VALID,1.62734,
2014-12-11, 00:01:05,VALID,918.125,VALID,0,VALID,91.1989,VALID,0,VALID,20.0148,VALID,136,VALID,1.33984,
2014-12-11, 00:02:05,VALID,918.152,VALID,0,VALID,91.2828,VALID,0,VALID,19.9548,VALID,138,VALID,1.84023,
2014-12-11, 00:03:05,VALID,918.143,VALID,0,VALID,91.2447,VALID,0,VALID,20.0148,VALID,152,VALID,1.04258,
2014-12-11, 00:04:05,VALID,918.157,VALID,0,VALID,91.1989,VALID,0,VALID,20.0343,VALID,165,VALID,1.5418,
2014-12-11, 00:05:05,VALID,918.151,VALID,0,VALID,91.0998,VALID,0,VALID,20.0343,VALID,144,VALID,2.58789,
2014-12-11, 00:06:05,VALID,918.184,VALID,0,VALID,91.1456,VALID,0,VALID,20.0538,VALID,175,VALID,1.40508,
2014-12-11, 00:07:05,VALID,918.192,VALID,0,VALID,91.1608,VALID,0,VALID,20.0538,VALID,154,VALID,2.70508,
2014-12-11, 00:08:05,VALID,918.187,VALID,0,VALID,91.1303,VALID,0.107441,VALID,20.0538,VALID,156,VALID,1.44141,
2014-12-11, 00:09:05,VALID,918.142,VALID,0,VALID,91.0846,VALID,0.107441,VALID,20.0733,VALID,136,VALID,1.93125,
2014-12-11, 00:10:05,VALID,918.148,VALID,0,VALID,91.1608,VALID,0.107441,VALID,20.0343,VALID,141,VALID,1.66172,
2014-12-11, 00:11:05,VALID,918.169,VALID,0,VALID,91.2599,VALID,0.107441,VALID,20.0133,VALID,168,VALID,1.53242,
2014-12-11, 00:12:05,VALID,918.157,VALID,0,VALID,91.3209,VALID,0,VALID,20.0148,VALID,145,VALID,1.57891,
2014-12-11, 00:13:05,VALID,918.137,VALID,0,VALID,91.3895,VALID,0,VALID,19.9968,VALID,150,VALID,1.30898,
2014-12-11, 00:14:05,VALID,918.15,VALID,0,VALID,91.5191,VALID,0,VALID,19.9773,VALID,152,VALID,1.14297,
2014-12-11, 00:15:05,VALID,918.132,VALID,0,VALID,91.6945,VALID,0,VALID,19.9383,VALID,168,VALID,1.30234,
2014-12-11, 00:16:05,VALID,918.135,VALID,0,VALID,91.9613,VALID,0,VALID,19.9188,VALID,159,VALID,0.352344,
2014-12-11, 00:17:05,VALID,918.122,VALID,0,VALID,92.2052,VALID,0,VALID,19.8783,VALID,146,VALID,0.663281,
2014-12-11, 00:18:05,VALID,918.108,VALID,0,VALID,92.3958,VALID,0,VALID,19.8393,VALID,163,VALID,1.20234,
2014-12-11, 00:19:05,VALID,918.124,VALID,0,VALID,92.6702,VALID,0,VALID,19.7823,VALID,161,VALID,1.41328,
2014-12-11, 00:20:05,VALID,918.115,VALID,0,VALID,92.8303,VALID,0,VALID,19.7823,VALID,121,VALID,2.72617,
2014-12-11, 00:21:05,VALID,918.111,VALID,0,VALID,92.7846,VALID,0,VALID,19.8213,VALID,139,VALID,1.11563,
2014-12-11, 00:22:05,VALID,918.09,VALID,0,VALID,92.5406,VALID,0,VALID,19.8603,VALID,137,VALID,1.58203,
2014-12-11, 00:23:05,VALID,918.101,VALID,0,VALID,92.2357,VALID,0,VALID,19.8798,VALID,104,VALID,1.74258,
2014-12-11, 00:24:05,VALID,918.066,VALID,0,VALID,91.9689,VALID,0,VALID,19.9188,VALID,132,VALID,1.56094,
2014-12-11, 00:25:05,VALID,918.056,VALID,0,VALID,91.7478,VALID,0,VALID,19.9383,VALID,153,VALID,1.87266,
2014-12-11, 00:26:05,VALID,918.068,VALID,0,VALID,91.6487,VALID,0,VALID,19.9383,VALID,161,VALID,0.998047,
2014-12-11, 00:27:05,VALID,918.04,VALID,0,VALID,91.6792,VALID,0,VALID,19.9188,VALID,159,VALID,1.81211,
2014-12-11, 00:28:05,VALID,918.019,VALID,0,VALID,91.6716,VALID,0,VALID,19.9173,VALID,136,VALID,1.51953,
2014-12-11, 00:29:05,VALID,918.011,VALID,0,VALID,91.5725,VALID,0,VALID,19.9563,VALID,122,VALID,1.7918,
2014-12-11, 00:30:05,VALID,918.007,VALID,0,VALID,91.4276,VALID,0,VALID,19.9758,VALID,139,VALID,1.51719,
2014-12-11, 00:31:05,VALID,917.978,VALID,0,VALID,91.3285,VALID,0,VALID,19.9953,VALID,129,VALID,2.21484,
2014-12-11, 00:32:05,VALID,917.941,VALID,0,VALID,91.1608,VALID,0,VALID,20.0538,VALID,137,VALID,1.92227,
2014-12-11, 00:33:05,VALID,917.972,VALID,0,VALID,91.0541,VALID,0,VALID,20.0538,VALID,131,VALID,2.03477,
2014-12-11, 00:34:05,VALID,917.966,VALID,0,VALID,90.833,VALID,0,VALID,20.0928,VALID,116,VALID,2.37734,
2014-12-11, 00:35:05,VALID,917.943,VALID,0,VALID,90.711,VALID,0.107441,VALID,20.0913,VALID,138,VALID,2.56602,
2014-12-11, 00:36:05,VALID,917.95,VALID,0,VALID,90.6119,VALID,0,VALID,20.1123,VALID,143,VALID,1.79141,
2014-12-11, 00:37:05,VALID,917.937,VALID,0,VALID,90.4366,VALID,0,VALID,20.1318,VALID,129,VALID,2.55195,
2014-12-11, 00:38:05,VALID,917.935,VALID,0,VALID,90.2612,VALID,0.107441,VALID,20.1708,VALID,115,VALID,1.5918,
2014-12-11, 00:39:05,VALID,917.924,VALID,0,VALID,90.3756,VALID,0.107441,VALID,20.1513,VALID,154,VALID,1.57891,
2014-12-11, 00:40:05,VALID,917.932,VALID,0,VALID,90.4671,VALID,0.107441,VALID,20.1123,VALID,120,VALID,1.68281,
2014-12-11, 00:41:05,VALID,917.95,VALID,0,VALID,90.6653,VALID,0.107441,VALID,20.0928,VALID,139,VALID,1.66016,
2014-12-11, 00:42:05,VALID,917.929,VALID,0,VALID,90.711,VALID,0,VALID,20.0928,VALID,136,VALID,2.99688,
2014-12-11, 00:43:05,VALID,917.908,VALID,0,VALID,90.65,VALID,0,VALID,20.0944,VALID,139,VALID,2.475,
2014-12-11, 00:44:05,VALID,917.876,VALID,0,VALID,90.4137,VALID,0,VALID,20.1334,VALID,128,VALID,1.60039,
2014-12-11, 00:45:04,VALID,917.888,VALID,0,VALID,90.2765,VALID,0,VALID,20.1529,VALID,118,VALID,2.85313,
2014-12-11, 00:46:04,VALID,917.858,VALID,0,VALID,90.2765,VALID,0,VALID,20.1529,VALID,144,VALID,2.73008,
2014-12-11, 00:47:04,VALID,917.827,VALID,0,VALID,90.2689,VALID,0,VALID,20.1123,VALID,111,VALID,2.11484,
2014-12-11, 00:48:04,VALID,917.841,VALID,0,VALID,90.2536,VALID,0,VALID,20.1123,VALID,126,VALID,2.26758,
2014-12-11, 00:49:04,VALID,917.794,VALID,0,VALID,90.2536,VALID,0,VALID,20.1334,VALID,147,VALID,1.14531,
2014-12-11, 00:50:04,VALID,917.803,VALID,0,VALID,90.2536,VALID,0,VALID,20.1139,VALID,127,VALID,1.5457,
2014-12-11, 00:51:04,VALID,917.781,VALID,0,VALID,90.3527,VALID,0,VALID,20.0944,VALID,128,VALID,1.70938,
2014-12-11, 00:52:04,VALID,917.769,VALID,0,VALID,90.3222,VALID,0,VALID,20.0944,VALID,140,VALID,1.23906,
2014-12-11, 00:53:04,VALID,917.781,VALID,0,VALID,90.2231,VALID,0,VALID,20.0928,VALID,139,VALID,2.00195,
2014-12-11, 00:54:04,VALID,917.8,VALID,0,VALID,90.1545,VALID,0,VALID,20.1139,VALID,126,VALID,1.59961,
2014-12-11, 00:55:04,VALID,917.785,VALID,0,VALID,90.2079,VALID,0,VALID,20.0749,VALID,117,VALID,1.5875,
2014-12-11, 00:56:04,VALID,917.782,VALID,0,VALID,90.1393,VALID,0,VALID,20.0944,VALID,116,VALID,1.63984,
2014-12-11, 00:57:04,VALID,917.805,VALID,0,VALID,89.9792,VALID,0,VALID,20.1139,VALID,126,VALID,2.31836,
2014-12-11, 00:58:04,VALID,917.774,VALID,0,VALID,89.8115,VALID,0,VALID,20.1334,VALID,113,VALID,1.21289,
2014-12-11, 00:59:04,VALID,917.741,VALID,0,VALID,89.7352,VALID,0,VALID,20.1334,VALID,115,VALID,2.39766,
2014-12-11, 01:00:04,VALID,917.757,VALID,0,VALID,89.7276,VALID,0,VALID,20.1529,VALID,100,VALID,1.06992,
2014-12-11, 01:01:04,VALID,917.713,VALID,0,VALID,89.6056,VALID,0,VALID,20.1334,VALID,124,VALID,1.76211,
2014-12-11, 01:02:04,VALID,917.745,VALID,0,VALID,89.5294,VALID,0,VALID,20.1529,VALID,124,VALID,1.49102,
2014-12-11, 01:03:04,VALID,917.727,VALID,0,VALID,89.4913,VALID,0,VALID,20.1529,VALID,141,VALID,1.09727,
2014-12-11, 01:04:04,VALID,917.716,VALID,0,VALID,89.476,VALID,0,VALID,20.1334,VALID,130,VALID,1.68906,
2014-12-11, 01:05:04,VALID,917.67,VALID,0,VALID,89.5751,VALID,0,VALID,20.1139,VALID,125,VALID,1.0293,
2014-12-11, 01:06:04,VALID,917.694,VALID,0,VALID,89.3617,VALID,0,VALID,20.1529,VALID,144,VALID,1.825,
2014-12-11, 01:07:04,VALID,917.698,VALID,0,VALID,89.133,VALID,0,VALID,20.1708,VALID,122,VALID,1.02656,
2014-12-11, 01:08:04,VALID,917.663,VALID,0,VALID,89.0034,VALID,0,VALID,20.1919,VALID,124,VALID,1.30781,
2014-12-11, 01:09:04,VALID,917.679,VALID,0,VALID,89.0491,VALID,0,VALID,20.1724,VALID,152,VALID,1.33555,
2014-12-11, 01:10:04,VALID,917.653,VALID,0,VALID,88.8357,VALID,0,VALID,20.1919,VALID,141,VALID,1.63477,
2014-12-11, 01:11:04,VALID,917.644,VALID,0,VALID,88.5612,VALID,0,VALID,20.2309,VALID,152,VALID,1.72773,
2014-12-11, 01:12:04,VALID,917.64,VALID,0,VALID,88.4697,VALID,0,VALID,20.2504,VALID,146,VALID,1.49023,
2014-12-11, 01:13:04,VALID,917.608,VALID,0,VALID,88.424,VALID,0.107441,VALID,20.2278,VALID,137,VALID,1.64805,
2014-12-11, 01:14:04,VALID,917.622,VALID,0,VALID,88.3401,VALID,0.107441,VALID,20.2684,VALID,130,VALID,1.95703,
2014-12-11, 01:15:04,VALID,917.631,VALID,0,VALID,88.3478,VALID,0,VALID,20.2473,VALID,142,VALID,1.6707,
2014-12-11, 01:16:04,VALID,917.62,VALID,0,VALID,88.2944,VALID,0.107441,VALID,20.2879,VALID,146,VALID,1.18906,
2014-12-11, 01:17:04,VALID,917.573,VALID,0,VALID,88.2182,VALID,0,VALID,20.2668,VALID,130,VALID,0.809766,
2014-12-11, 01:18:04,VALID,917.564,VALID,0,VALID,88.1191,VALID,0.107441,VALID,20.2684,VALID,173,VALID,1.46172,
2014-12-11, 01:19:04,VALID,917.591,VALID,0,VALID,88.1114,VALID,0.107441,VALID,20.2668,VALID,137,VALID,1.55664,
2014-12-11, 01:20:04,VALID,917.57,VALID,0,VALID,88.1724,VALID,0,VALID,20.2684,VALID,152,VALID,1.34766,
2014-12-11, 01:21:04,VALID,917.582,VALID,0,VALID,88.424,VALID,0.107441,VALID,20.2083,VALID,143,VALID,0.719141,
2014-12-11, 01:22:04,VALID,917.573,VALID,0,VALID,88.7137,VALID,0.107441,VALID,20.1693,VALID,163,VALID,1.51328,
2014-12-11, 01:23:04,VALID,917.586,VALID,0,VALID,89.0034,VALID,0,VALID,20.1318,VALID,180,VALID,0.712891,
2014-12-11, 01:24:04,VALID,917.577,VALID,0,VALID,89.2016,VALID,0,VALID,20.0718,VALID,146,VALID,0.859375,
2014-12-11, 01:25:04,VALID,917.551,VALID,0,VALID,89.415,VALID,0.107441,VALID,20.0133,VALID,140,VALID,0,
2014-12-11, 01:26:04,VALID,917.544,VALID,0,VALID,89.6742,VALID,0,VALID,19.9953,VALID,136,VALID,0,
2014-12-11, 01:27:04,VALID,917.542,VALID,0,VALID,89.8953,VALID,0.107441,VALID,19.9563,VALID,172,VALID,0.866406,
2014-12-11, 01:28:04,VALID,917.555,VALID,0,VALID,90.1621,VALID,0,VALID,19.8783,VALID,158,VALID,1.17773,
2014-12-11, 01:29:04,VALID,917.49,VALID,0,VALID,90.3604,VALID,0.107441,VALID,19.8588,VALID,138,VALID,0.619531,
2014-12-11, 01:30:04,VALID,917.501,VALID,0,VALID,90.4061,VALID,0.107441,VALID,19.8378,VALID,152,VALID,0.825391,
2014-12-11, 01:31:04,VALID,917.455,VALID,0,VALID,90.4671,VALID,0.107441,VALID,19.8183,VALID,163,VALID,0.755078,
2014-12-11, 01:32:04,VALID,917.447,VALID,0,VALID,90.5204,VALID,0.107441,VALID,19.8003,VALID,179,VALID,0.521484,
2014-12-11, 01:33:04,VALID,917.457,VALID,0,VALID,90.5128,VALID,0.107441,VALID,19.7583,VALID,146,VALID,1.45039,
2014-12-11, 01:34:04,VALID,917.413,VALID,0,VALID,90.3527,VALID,0.107441,VALID,19.7988,VALID,121,VALID,1.66641,
2014-12-11, 01:35:04,VALID,917.423,VALID,0,VALID,90.1774,VALID,0.107441,VALID,19.8183,VALID,141,VALID,1.62461,
2014-12-11, 01:36:04,VALID,917.41,VALID,0,VALID,89.9487,VALID,0.107441,VALID,19.8768,VALID,136,VALID,1.04688,
2014-12-11, 01:37:04,VALID,917.417,VALID,0,VALID,89.9106,VALID,0,VALID,19.8588,VALID,124,VALID,0.738281,
2014-12-11, 01:38:04,VALID,917.413,VALID,0,VALID,90.0707,VALID,0,VALID,19.8183,VALID,192,VALID,0.945313,
2014-12-11, 01:39:04,VALID,917.393,VALID,0,VALID,90.2079,VALID,0,VALID,19.7988,VALID,154,VALID,1.37461,
2014-12-11, 01:40:04,VALID,917.351,VALID,0,VALID,90.2689,VALID,0,VALID,19.7988,VALID,162,VALID,1.47891,
2014-12-11, 01:41:04,VALID,917.364,VALID,0,VALID,90.2079,VALID,0.107441,VALID,19.8198,VALID,147,VALID,2.01367,
2014-12-11, 01:42:04,VALID,917.338,VALID,0,VALID,90.1088,VALID,0,VALID,19.8588,VALID,153,VALID,0.610547,
2014-12-11, 01:43:04,VALID,917.341,VALID,0,VALID,90.1545,VALID,0,VALID,19.8003,VALID,158,VALID,0.70625,
2014-12-11, 01:44:04,VALID,917.328,VALID,0,VALID,90.3222,VALID,0,VALID,19.7613,VALID,144,VALID,1.08672,
2014-12-11, 01:45:04,VALID,917.32,VALID,0,VALID,90.3756,VALID,0,VALID,19.7823,VALID,143,VALID,2.09531,
2014-12-11, 01:46:04,VALID,917.324,VALID,0,VALID,90.2612,VALID,0,VALID,19.8003,VALID,131,VALID,1.42578,
2014-12-11, 01:47:04,VALID,917.303,VALID,0,VALID,90.2765,VALID,0,VALID,19.7823,VALID,143,VALID,1.23516,
2014-12-11, 01:48:04,VALID,917.281,VALID,0,VALID,90.307,VALID,0,VALID,19.7808,VALID,123,VALID,1.38555,
2014-12-11, 01:49:04,VALID,917.28,VALID,0,VALID,90.307,VALID,0,VALID,19.7823,VALID,133,VALID,1.44414,
2014-12-11, 01:50:04,VALID,917.243,VALID,0,VALID,90.2155,VALID,0,VALID,19.8018,VALID,135,VALID,1.26172,
2014-12-11, 01:51:04,VALID,917.185,VALID,0,VALID,90.1698,VALID,0,VALID,19.8018,VALID,133,VALID,1.44609,
2014-12-11, 01:52:04,VALID,917.214,VALID,0,VALID,90.1316,VALID,0,VALID,19.8018,VALID,142,VALID,1.44375,
2014-12-11, 01:53:04,VALID,917.158,VALID,0,VALID,90.1316,VALID,0,VALID,19.8018,VALID,138,VALID,1.23906,
2014-12-11, 01:54:04,VALID,917.147,VALID,0,VALID,90.1164,VALID,0,VALID,19.8018,VALID,131,VALID,1.55703,
2014-12-11, 01:55:04,VALID,917.131,VALID,0,VALID,90.1393,VALID,0,VALID,19.7823,VALID,141,VALID,0.398828,
2014-12-11, 01:56:04,VALID,917.137,VALID,0,VALID,90.2155,VALID,0,VALID,19.7418,VALID,139,VALID,1.04688,
2014-12-11, 01:57:04,VALID,917.1,VALID,0,VALID,90.3527,VALID,0,VALID,19.7433,VALID,138,VALID,1.39492,
2014-12-11, 01:58:04,VALID,917.111,VALID,0,VALID,90.3527,VALID,0,VALID,19.7433,VALID,134,VALID,0.879297,
2014-12-11, 01:59:04,VALID,917.072,VALID,0,VALID,90.3451,VALID,0,VALID,19.7433,VALID,132,VALID,0.398828,
2014-12-11, 02:00:04,VALID,917.08,VALID,0,VALID,90.4442,VALID,0,VALID,19.6833,VALID,132,VALID,0.617188,
2014-12-11, 02:01:04,VALID,917.084,VALID,0,VALID,90.5662,VALID,0,VALID,19.6653,VALID,134,VALID,0.552734,
2014-12-11, 02:02:04,VALID,917.116,VALID,0,VALID,90.7339,VALID,0,VALID,19.6248,VALID,145,VALID,0.771094,
2014-12-11, 02:03:04,VALID,917.087,VALID,0,VALID,90.8559,VALID,0,VALID,19.6263,VALID,145,VALID,0.848828,
2014-12-11, 02:04:04,VALID,917.113,VALID,0,VALID,90.955,VALID,0,VALID,19.6068,VALID,148,VALID,0.534766,
2014-12-11, 02:05:04,VALID,917.08,VALID,0,VALID,91.0922,VALID,0,VALID,19.5873,VALID,152,VALID,0.404687,
2014-12-11, 02:06:04,VALID,917.073,VALID,0,VALID,91.2447,VALID,0,VALID,19.5873,VALID,141,VALID,1.68281,
2014-12-11, 02:07:04,VALID,917.083,VALID,0,VALID,91.2294,VALID,0,VALID,19.6263,VALID,148,VALID,0.887891,
2014-12-11, 02:08:04,VALID,917.086,VALID,0,VALID,91.1684,VALID,0,VALID,19.6263,VALID,133,VALID,1.16836,
2014-12-11, 02:09:04,VALID,917.091,VALID,0,VALID,91.1303,VALID,0,VALID,19.6458,VALID,136,VALID,1.13437,
2014-12-11, 02:10:04,VALID,917.054,VALID,0,VALID,90.9397,VALID,0,VALID,19.7253,VALID,134,VALID,1.59414,
2014-12-11, 02:11:04,VALID,917.03,VALID,0,VALID,90.6729,VALID,0,VALID,19.7238,VALID,137,VALID,1.18203,
2014-12-11, 02:12:04,VALID,917.029,VALID,0,VALID,90.6195,VALID,0,VALID,19.7043,VALID,150,VALID,1.3332,
2014-12-11, 02:13:04,VALID,917.026,VALID,0,VALID,90.5814,VALID,0,VALID,19.6833,VALID,146,VALID,1.0043,
2014-12-11, 02:14:04,VALID,916.982,VALID,0,VALID,90.6119,VALID,0,VALID,19.6833,VALID,145,VALID,0.195313,
2014-12-11, 02:15:04,VALID,916.983,VALID,0,VALID,90.6653,VALID,0,VALID,19.6638,VALID,150,VALID,0.856641,
2014-12-11, 02:16:04,VALID,916.947,VALID,0,VALID,90.7034,VALID,0,VALID,19.6443,VALID,153,VALID,0.83125,
2014-12-11, 02:17:04,VALID,916.956,VALID,0,VALID,90.7873,VALID,0,VALID,19.6038,VALID,147,VALID,1.03672,
2014-12-11, 02:18:04,VALID,916.903,VALID,0,VALID,90.9016,VALID,0,VALID,19.6053,VALID,167,VALID,0.861719,
2014-12-11, 02:19:04,VALID,916.879,VALID,0,VALID,90.955,VALID,0,VALID,19.6053,VALID,140,VALID,0.902344,
2014-12-11, 02:20:04,VALID,916.878,VALID,0,VALID,90.9397,VALID,0,VALID,19.6053,VALID,150,VALID,1.29141,
2014-12-11, 02:21:04,VALID,916.89,VALID,0,VALID,90.9855,VALID,0,VALID,19.5858,VALID,125,VALID,1.5375,
2014-12-11, 02:22:04,VALID,916.847,VALID,0,VALID,90.9169,VALID,0,VALID,19.6248,VALID,131,VALID,1.16602,
2014-12-11, 02:23:04,VALID,916.875,VALID,0,VALID,90.8711,VALID,0.107441,VALID,19.6248,VALID,134,VALID,0.911328,
2014-12-11, 02:24:04,VALID,916.827,VALID,0,VALID,90.8025,VALID,0,VALID,19.6458,VALID,113,VALID,1.35312,
2014-12-11, 02:25:04,VALID,916.865,VALID,0,VALID,90.6958,VALID,0,VALID,19.6443,VALID,132,VALID,0.466406,
2014-12-11, 02:26:04,VALID,916.862,VALID,0,VALID,90.6729,VALID,0.107441,VALID,19.6248,VALID,134,VALID,0.666797,
2014-12-11, 02:27:04,VALID,916.855,VALID,0,VALID,90.7796,VALID,0,VALID,19.5858,VALID,137,VALID,0.520703,
2014-12-11, 02:28:04,VALID,916.868,VALID,0,VALID,90.9245,VALID,0,VALID,19.5663,VALID,137,VALID,0.40625,
2014-12-11, 02:29:04,VALID,916.852,VALID,0,VALID,91.0465,VALID,0,VALID,19.5273,VALID,137,VALID,0.488281,
2014-12-11, 02:30:04,VALID,916.865,VALID,0,VALID,91.1989,VALID,0,VALID,19.5078,VALID,137,VALID,0.342187,
2014-12-11, 02:31:04,VALID,916.85,VALID,0,VALID,91.5725,VALID,0,VALID,19.4883,VALID,137,VALID,0.663281,
2014-12-11, 02:32:04,VALID,916.84,VALID,0,VALID,91.7173,VALID,0,VALID,19.4298,VALID,138,VALID,0.275781,
2014-12-11, 02:33:04,VALID,916.818,VALID,0,VALID,92.2814,VALID,0,VALID,19.3923,VALID,137,VALID,0.453516,
2014-12-11, 02:34:04,VALID,916.82,VALID,0,VALID,92.9294,VALID,0,VALID,19.3323,VALID,138,VALID,0.335938,
2014-12-11, 02:35:04,VALID,916.808,VALID,0,VALID,93.4478,VALID,0,VALID,19.2933,VALID,138,VALID,0.55625,
2014-12-11, 02:36:04,VALID,916.816,VALID,0,VALID,94.2102,VALID,0,VALID,19.2348,VALID,138,VALID,0.405859,
2014-12-11, 02:37:04,VALID,916.783,VALID,0,VALID,94.7286,VALID,0,VALID,19.1958,VALID,138,VALID,0.494531,
2014-12-11, 02:38:04,VALID,916.794,VALID,0,VALID,94.881,VALID,0,VALID,19.1568,VALID,138,VALID,0.489062,
2014-12-11, 02:39:04,VALID,916.793,VALID,0,VALID,95.003,VALID,0,VALID,19.1568,VALID,137,VALID,0.0316406,
2014-12-11, 02:40:04,VALID,916.817,VALID,0,VALID,94.9344,VALID,0,VALID,19.1178,VALID,137,VALID,0,
2014-12-11, 02:41:04,VALID,916.773,VALID,0,VALID,95.003,VALID,0,VALID,19.0788,VALID,137,VALID,0,
2014-12-11, 02:42:04,VALID,916.787,VALID,0,VALID,94.9649,VALID,0,VALID,19.0413,VALID,137,VALID,0,
2014-12-11, 02:43:04,VALID,916.78,VALID,0,VALID,95.1631,VALID,0,VALID,19.0008,VALID,137,VALID,0,
2014-12-11, 02:44:04,VALID,916.781,VALID,0,VALID,95.3613,VALID,0,VALID,18.9814,VALID,137,VALID,0.341406,
2014-12-11, 02:45:04,VALID,916.799,VALID,0,VALID,95.4375,VALID,0.107441,VALID,18.9814,VALID,137,VALID,0.567969,
2014-12-11, 02:46:04,VALID,916.789,VALID,0,VALID,95.3689,VALID,0.107441,VALID,18.9229,VALID,137,VALID,0.353906,
2014-12-11, 02:47:04,VALID,916.807,VALID,0,VALID,95.3918,VALID,0,VALID,18.9048,VALID,137,VALID,0.164063,
2014-12-11, 02:48:04,VALID,916.776,VALID,0,VALID,95.468,VALID,0,VALID,18.8449,VALID,137,VALID,0.223828,
2014-12-11, 02:49:04,VALID,916.772,VALID,0,VALID,95.5062,VALID,0,VALID,18.8059,VALID,137,VALID,0.391406,
2014-12-11, 02:50:04,VALID,916.776,VALID,0,VALID,95.6205,VALID,0.107441,VALID,18.7669,VALID,137,VALID,0.0949219,
2014-12-11, 02:51:04,VALID,916.777,VALID,0,VALID,95.7196,VALID,0,VALID,18.7279,VALID,137,VALID,0,
2014-12-11, 02:52:04,VALID,916.775,VALID,0,VALID,95.8187,VALID,0,VALID,18.6889,VALID,137,VALID,0,
2014-12-11, 02:53:04,VALID,916.79,VALID,0,VALID,95.8797,VALID,0.107441,VALID,18.6694,VALID,137,VALID,0,
2014-12-11, 02:54:04,VALID,916.76,VALID,0,VALID,95.8873,VALID,0,VALID,18.6319,VALID,137,VALID,0,
2014-12-11, 02:55:04,VALID,916.751,VALID,0,VALID,95.895,VALID,0.107441,VALID,18.5929,VALID,137,VALID,0,
2014-12-11, 02:56:04,VALID,916.721,VALID,0,VALID,95.9102,VALID,0,VALID,18.5135,VALID,137,VALID,0,
2014-12-11, 02:57:04,VALID,916.724,VALID,0,VALID,96.0703,VALID,0,VALID,18.494,VALID,137,VALID,0,
2014-12-11, 02:58:04,VALID,916.706,VALID,0,VALID,96.1694,VALID,0,VALID,18.4745,VALID,137,VALID,0,
2014-12-11, 02:59:04,VALID,916.725,VALID,0,VALID,96.3371,VALID,0.107441,VALID,18.4745,VALID,137,VALID,0.291797,
2014-12-11, 03:00:04,VALID,916.696,VALID,0,VALID,96.4362,VALID,0,VALID,18.455,VALID,137,VALID,0.0507813,
2014-12-11, 03:01:04,VALID,916.686,VALID,0,VALID,96.5506,VALID,0.107441,VALID,18.455,VALID,137,VALID,0.325,
2014-12-11, 03:02:04,VALID,916.684,VALID,0,VALID,96.7183,VALID,0,VALID,18.4759,VALID,137,VALID,0.301562,
2014-12-11, 03:03:04,VALID,916.692,VALID,0,VALID,96.7945,VALID,0,VALID,18.4745,VALID,137,VALID,0.428125,
2014-12-11, 03:04:04,VALID,916.684,VALID,0,VALID,96.8936,VALID,0,VALID,18.5344,VALID,137,VALID,0,
2014-12-11, 03:05:04,VALID,916.655,VALID,0,VALID,96.9851,VALID,0,VALID,18.5525,VALID,137,VALID,1.0125,
2014-12-11, 03:06:04,VALID,916.642,VALID,0,VALID,97.0003,VALID,0,VALID,18.5734,VALID,137,VALID,0.757422,
2014-12-11, 03:07:04,VALID,916.63,VALID,0,VALID,96.9851,VALID,0,VALID,18.533,VALID,137,VALID,0.971875,
2014-12-11, 03:08:04,VALID,916.657,VALID,0,VALID,96.9546,VALID,0,VALID,18.5344,VALID,137,VALID,0.75,
2014-12-11, 03:09:04,VALID,916.604,VALID,0,VALID,96.947,VALID,0,VALID,18.533,VALID,137,VALID,1.07617,
2014-12-11, 03:10:04,VALID,916.623,VALID,0,VALID,96.9546,VALID,0.107441,VALID,18.533,VALID,137,VALID,0.874219,
2014-12-11, 03:11:04,VALID,916.598,VALID,0,VALID,96.9622,VALID,0,VALID,18.5539,VALID,138,VALID,0.923437,
2014-12-11, 03:12:04,VALID,916.617,VALID,0,VALID,96.9622,VALID,0,VALID,18.5525,VALID,137,VALID,0.925391,
2014-12-11, 03:13:04,VALID,916.615,VALID,0,VALID,96.947,VALID,0,VALID,18.572,VALID,135,VALID,0.75625,
2014-12-11, 03:14:04,VALID,916.585,VALID,0,VALID,96.947,VALID,0.107441,VALID,18.572,VALID,140,VALID,0.740625,
2014-12-11, 03:15:04,VALID,916.587,VALID,0,VALID,96.947,VALID,0,VALID,18.6124,VALID,140,VALID,0.888281,
2014-12-11, 03:16:04,VALID,916.614,VALID,0,VALID,96.9317,VALID,0,VALID,18.6319,VALID,143,VALID,0.682031,
2014-12-11, 03:17:04,VALID,916.596,VALID,0,VALID,96.9241,VALID,0,VALID,18.6513,VALID,171,VALID,0.532422,
2014-12-11, 03:18:04,VALID,916.582,VALID,0,VALID,96.947,VALID,0,VALID,18.6304,VALID,149,VALID,0.610547,
2014-12-11, 03:19:04,VALID,916.571,VALID,0,VALID,96.9165,VALID,0,VALID,18.6109,VALID,149,VALID,0.147656,
2014-12-11, 03:20:04,VALID,916.588,VALID,0,VALID,96.9317,VALID,0.107441,VALID,18.6109,VALID,149,VALID,0,
2014-12-11, 03:21:04,VALID,916.566,VALID,0,VALID,96.9089,VALID,0.107441,VALID,18.5914,VALID,140,VALID,0.851172,
2014-12-11, 03:22:04,VALID,916.566,VALID,0,VALID,96.947,VALID,0,VALID,18.6109,VALID,133,VALID,0.768359,
2014-12-11, 03:23:04,VALID,916.548,VALID,0,VALID,96.947,VALID,0,VALID,18.5914,VALID,128,VALID,0.751172,
2014-12-11, 03:24:04,VALID,916.517,VALID,0,VALID,96.9546,VALID,0,VALID,18.572,VALID,135,VALID,0.7125,
2014-12-11, 03:25:04,VALID,916.51,VALID,0,VALID,96.9775,VALID,0,VALID,18.572,VALID,136,VALID,0.691016,
2014-12-11, 03:26:04,VALID,916.528,VALID,0,VALID,96.9698,VALID,0,VALID,18.572,VALID,135,VALID,0.508203,
2014-12-11, 03:27:04,VALID,916.528,VALID,0,VALID,96.9927,VALID,0.107441,VALID,18.5525,VALID,135,VALID,0.648828,
2014-12-11, 03:28:04,VALID,916.517,VALID,0,VALID,96.9698,VALID,0,VALID,18.5539,VALID,136,VALID,0.410156,
2014-12-11, 03:29:04,VALID,916.52,VALID,0,VALID,97.008,VALID,0,VALID,18.5135,VALID,136,VALID,0.358594,
2014-12-11, 03:30:04,VALID,916.526,VALID,0,VALID,96.9927,VALID,0,VALID,18.5344,VALID,136,VALID,0.658594,
2014-12-11, 03:31:04,VALID,916.526,VALID,0,VALID,97.008,VALID,0,VALID,18.5135,VALID,146,VALID,0.833984,
2014-12-11, 03:32:04,VALID,916.524,VALID,0,VALID,97.0461,VALID,0,VALID,18.5149,VALID,165,VALID,0.883984,
2014-12-11, 03:33:04,VALID,916.517,VALID,0,VALID,97.0994,VALID,0,VALID,18.4745,VALID,160,VALID,0,
2014-12-11, 03:34:04,VALID,916.524,VALID,0,VALID,97.0994,VALID,0,VALID,18.4759,VALID,166,VALID,0.948438,
2014-12-11, 03:35:04,VALID,916.542,VALID,0,VALID,97.0918,VALID,0,VALID,18.4174,VALID,162,VALID,0.919922,
2014-12-11, 03:36:04,VALID,916.494,VALID,0,VALID,97.1147,VALID,0,VALID,18.416,VALID,157,VALID,0.916797,
2014-12-11, 03:37:04,VALID,916.491,VALID,0,VALID,97.1604,VALID,0,VALID,18.4759,VALID,154,VALID,0.563281,
2014-12-11, 03:38:04,VALID,916.479,VALID,0,VALID,97.1986,VALID,0,VALID,18.4954,VALID,155,VALID,0.980859,
2014-12-11, 03:39:04,VALID,916.506,VALID,0,VALID,97.2367,VALID,0,VALID,18.5149,VALID,148,VALID,1.15391,
2014-12-11, 03:40:04,VALID,916.465,VALID,0,VALID,97.229,VALID,0,VALID,18.5344,VALID,147,VALID,0.588281,
2014-12-11, 03:41:04,VALID,916.477,VALID,0,VALID,97.229,VALID,0,VALID,18.533,VALID,168,VALID,1.24492,
2014-12-11, 03:42:04,VALID,916.518,VALID,0,VALID,97.2443,VALID,0,VALID,18.533,VALID,169,VALID,0.870313,
2014-12-11, 03:43:04,VALID,916.481,VALID,0,VALID,97.229,VALID,0,VALID,18.5539,VALID,163,VALID,1.31719,
2014-12-11, 03:44:04,VALID,916.487,VALID,0,VALID,97.2672,VALID,0,VALID,18.5525,VALID,154,VALID,1.14023,